Volver al catálogo

STARLINK-32328

ActivoComunicacionesVLEO
NORAD 62489·PAYLOAD·🇺🇸 United States

Lanzado Jan 6, 2025 desde Cape Canaveral Space Force Station

Loading…

Próximos Pases (próximas 24 horas)

TLE

ActualizadoSource: CelesTrak SupGP

Época: Sep 15, 2026, 03:12 UTC

1 62489C 25003C   26258.13381944  .00020560  00000+0  74462-3 0  2581
2 62489  43.0003 299.3604 0001328 264.3079  16.7852 15.27570404    14

Sigue STARLINK-32328 en tiempo real con AllMySat

Download on the App Store